Find Starlink 30836

NORAD ID: 58221 Int'l Des: 2023-170 Owner: SPXS Country: US Constellation: starlink operational
LEOCIRCULAR

Current View

Loading 3D Globe...

About Starlink 30836

Starlink 30836 (NORAD 58221) is a starlink constellation satellite (v2 mini) launched Nov 4, 2023 by SPXS of US. It operates in LEO, CIRCULAR orbit with a mass of 730.00 kg.

About Starlink 30836

Description loading...

Upcoming Passes

Passes for default location (London). Set your location on the main map for personalized predictions.

Altitude History

Loading altitude history...

Two-Line Element Set

1 58221U 23170R 26169.81126729 -.00000187 00000-0 27338-5 0 9996
2 58221 43.0062 343.2349 0001373 258.3665 101.7032 15.27593250145768
Epoch: Jun 18, 2026 • Age: 11 hours

Current Status

Altitude 482.6 km
Velocity 7.63 km/s
Sub-Earth Point 3.82°N, 19.96°W
Launch Date Nov 4, 2023
Age 2.6 years
Type internet

Technical Details

Classification Payload
Mass 730.00 kg
Dry Mass 700.00 kg
Total Mass 730.00 kg
Length 0.30 m
Diameter 4.10 m
Span 29.00 m
Shape Box + pan
Manufacturer SPXS
Bus Type Starlink V2M
Phase Status In Orbit
Owner/State SPXS/US

Most Searched